Regional Weather Roundup
Issued by NWS

Home | Current Version | Previous Version | Text Only | Print | Product List | Glossary On
Versions: 1 2 3 4 5 6 7 8 9 10 11 12 13 14 15 16 17 18 19 20 21 22 23 24 25 26 27 28 29 30 31 32 33 34 35 36 37 38 39 40 41 42 43 44 45 46 47 48 49 50
000
ASUS44 KMEG 072010
RWRTN
TENNESSEE HOURLY STATE WEATHER ROUNDUP
NATIONAL WEATHER SERVICE MEMPHIS TN
300 PM CDT TUE JUL 07 2015

TNZ002-004-019-021-049-052-054-088>092-072100-
WEST TENNESSEE

CITY           SKY/WX    TMP DP  RH WIND       PRES   REMARKS
MEMPHIS INTL   MOSUNNY   91  74  57 SW12G20   30.03S HX 100
NWS MEMPHIS      N/A     91 N/A N/A MISG        N/A
JACKSON        MOSUNNY   91  75  59 SW13G20   30.02F HX 101
DYERSBURG        N/A    N/A N/A N/A MISG        N/A
PARIS          MOSUNNY   81  75  83 SW9       30.02S
LEXINGTON      MOSUNNY   88  73  62 SW14      30.03F HX  96
$$

TNZ008-025-027-028-033-062-065-066-072100-
NORTH MIDDLE TENNESSEE

CITY           SKY/WX    TMP DP  RH WIND       PRES   REMARKS
NASHVILLE      PTSUNNY   88  71  57 SW12G18   30.05S HX  94
CLARKSVILLE    PTSUNNY   84  73  69 SW9       30.01F HX  90
SMYRNA         PTSUNNY   90  71  53 SW12G20   30.06S HX  96
COOKEVILLE     MOSUNNY   91  73  55 SW13      30.09S HX 100
CROSSVILLE     PTSUNNY   82  66  58 W10G18    30.16R
$$

TNZ061-075-076-078-094-096-097-072100-
SOUTH MIDDLE TENNESSEE

CITY           SKY/WX    TMP DP  RH WIND       PRES   REMARKS
FAYETTEVILLE     N/A     88  70  55 SW12      30.11F HX  92
TULLAHOMA      SUNNY     86  70  58 S14       30.11F HX  90
WINCHESTER     MOSUNNY   90  72  55 SW12      30.11F HX  96
MCMINNVILLE    SUNNY     88  73  62 SW8       30.10S HX  96
COLUMBIA       MOSUNNY   90  73  58 SW14      30.06S HX  98
SHELBYVILLE    MOSUNNY   90  73  58 SW14        N/A  HX  98
$$

TNZ017-018-042-046-047-072100-
NORTHEAST TENNESSEE

CITY           SKY/WX    TMP DP  RH WIND       PRES   REMARKS
TRI CITIES     PTSUNNY   86  66  51 SW14      30.12F
ELIZABETHTON   CLEAR     84  64  51 W8        30.13S
$$

TNZ012-013-036-069-073-074-072100-
CENTRAL EAST TENNESSEE

CITY           SKY/WX    TMP DP  RH WIND       PRES   REMARKS
KNOXVILLE      CLOUDY    87  69  54 SW17G23   30.09F HX  91
OAK RIDGE      MOSUNNY   89  69  51 VRB6      30.10F HX  93
GATLINBURG       N/A     90  64  43 SW10      30.09F HX  91
MORRISTOWN     CLEAR     88  70  55 SW15      30.12F HX  92
$$

TNZ083-085-099-072100-
SOUTHEAST TENNESSEE

CITY           SKY/WX    TMP DP  RH WIND       PRES   REMARKS
CHATTANOOGA    MOSUNNY   90  67  46 SW9       30.11S HX  93
$$

SKY/WX REPORTED AS FAIR MEANS FEW OR NO CLOUDS BELOW
12 THOUSAND FEET.




USA.gov is the U.S. government's official web portal to all federal, state and local government web resources and services.